{"data":{"norad_id":45726,"epoch":"2026-05-24T10:38:22.897248Z","epoch_age_seconds":116407,"freshness":"FRESH","line1":"1 45726U 20037D   26144.44332057  .00001525  00000+0  11036-3 0  9997","line2":"2 45726  97.7858 337.1717 0007570 246.8931 113.1497 15.05546905322093","mean_motion":15.05546905,"eccentricity":0.000757,"inclination_deg":97.7858,"raan_deg":337.1717,"arg_perigee_deg":246.8931,"mean_anomaly_deg":113.1497,"bstar":0.00011036,"rev_number":32209,"period_min":95.646306017945,"perigee_km":544.58293672087,"apogee_km":555.07187483121,"semimajor_km":6927.964405776,"source":"CELESTRAK","updated_at":"2026-05-25T13:37:56.221717Z"}}